User: anonymous   Login
Location: Monroe
(41.9160°N, 83.3980°W)
Time: 21:40:37
(UTC-04:00)
Language:

deb Explorer IX - Orbit

View from above orbital plane
View from above orbital plane
View from above satellite
View from above satellite

Ground track
Ground track

The orbit data is extracted from the following two-line orbital elements,

1 00085U 61004C   16126.32984772  .00002539  00000-0  59466-3 0  9994
2 00085  38.7736 107.3748 0406944 231.9910 124.3428 14.15069643717436
Epoch (UTC): 05 May 2016 07:54:58
Eccentricity: 0.0406944
inclination: 38.7736°
perigee height: 548 km
apogee height: 1136 km
right ascension of ascending node: 107.3748°
argument of perigee: 231.9910°
revolutions per day: 14.15069643
mean anomaly at epoch: 124.3428°
orbit number at epoch: 71743

The dashed part of the orbit path shows where the satellite is in the earth's shadow,  

DLR